Location: Domont
(49.0278°N, 2.3264°E)
Time: 02:37:36
(UTC+00:00)

Orbus 7S? - Pass Details

Date: 31 May 2022
Orbit: 345 x 6369 km, 56.9° (Epoch: 01 July)

Event Time Altitude Azimuth Distance (km) Brightness Sun altitude
Exits shadow 00:23:15 - 231° (SW) 4,422 7.5 -18.7°
Reaches altitude 10° 00:23:24 10° 231° (SW) 4,391 7.4 -18.7°
Maximum altitude 00:36:57 89° 143° (SE) 3,636 7.3 -18.3°
Drops below altitude 10° 01:12:50 10° 60° (ENE) 9,854 10.4 -16.6°
Sets 01:21:41 0° 62° (ENE) 11,052 10.7 -16.1°
